Regional Weather Roundup
Issued by NWS

Home | Current Version | Previous Version | Text Only | Print | Product List | Glossary On
Versions: 1 2 3 4 5 6 7 8 9 10 11 12 13 14 15 16 17 18 19 20 21 22 23 24 25 26 27 28 29 30 31 32 33 34 35 36 37 38 39 40 41 42 43 44 45 46 47 48 49 50
990
ASUS44 KJAN 311610
RWRMS

MISSISSIPPI HOURLY WEATHER ROUNDUP
NATIONAL WEATHER SERVICE JACKSON MS
1000 AM CST SAT JAN 31 2015

NOTE: "FAIR: INDICATES FEW OR NO CLOUDS BELOW 12,000 FEET WITH NO
SIGNIFICANT WEATHER AND/OR OBSTRUCTIONS TO VISIBILITY.

MSZ001>002-007>008-010>013-018>021-025>028-034>036-311700-
NORTHWEST MISSISSIPPI

CITY           SKY/WX    TMP DP  RH WIND       PRES   REMARKS
GREENWOOD      CLOUDY    44  25  47 SE8       30.37F
GREENVILLE     CLOUDY    42  27  55 SE15      30.35F
OLIVE BRANCH   PTSUNNY   37  27  65 E6        30.38S WCI  33
$$

MSZ003>006-009-014>017-022>024-029>033-037>039-311700-
NORTHEAST MISSISSIPPI

CITY           SKY/WX    TMP DP  RH WIND       PRES   REMARKS
COLUMBUS AFB   MOSUNNY   45  23  42 SE8       30.41R
CORINTH        FAIR      39  27  60 SE6       30.39S WCI  35
GOLDN TRIANGLE MOSUNNY   41  27  56 E9        30.39R
TUPELO         CLOUDY    42  23  46 SE7       30.39F
$$

MSZ040-058-311700-
CENTRAL MISSISSIPPI

CITY           SKY/WX    TMP DP  RH WIND       PRES   REMARKS
JACKSON INTL   CLOUDY    46  24  42 E12       30.35R
JACKSON HAWKNS PTSUNNY   46  26  45 E8        30.35R
MERIDIAN KEY   CLOUDY    45  23  42 E8        30.36F
MERIDIAN NAS   CLOUDY    43  26  51 SE9       30.38F
VICKSBURG      PTSUNNY   47  28  47 SE12      30.35R
$$

MSZ059>079-311700-
SOUTH MISSISSIPPI

CITY           SKY/WX    TMP DP  RH WIND       PRES   REMARKS
HATTIESBURG    SUNNY     47  28  47 E8        30.37S
MCCOMB         SUNNY     49  26  41 SE13      30.34R
NATCHEZ        PTSUNNY   48  28  46 E15       30.32F
PINE BELT      SUNNY     46  27  46 SE9       30.35F
$$

MSZ080>082-311700-
COASTAL MISSISSIPPI

CITY           SKY/WX    TMP DP  RH WIND       PRES   REMARKS
BAY ST LOUIS   SUNNY     52  30  43 E8        30.35S
BILOXI         SUNNY     51  32  48 E8        30.35R
PASCAGOULA     SUNNY     51  29  42 E8        30.35S
GULFPORT       SUNNY     50  32  50 E7        30.35S
$$



USA.gov is the U.S. government's official web portal to all federal, state and local government web resources and services.